Weather History for Ruston, LA

Change the Weather History Date:

Sunday, February 9, 2014

  Actual Average Record
Temperature  
Mean Temperature 42 °F -  
Max Temperature 50 °F 55 °F 85 °F (1932)
Min Temperature 35 °F 31 °F 13 °F (1933)
Degree Days  
Heating Degree Days 22    
Moisture  
Dew Point 41 °F    
Average Humidity 93    
Maximum Humidity 100    
Minimum Humidity 78    
Precipitation  
Precipitation 0.00 in - - ()
Sea Level Pressure  
Sea Level Pressure 30.16 in    
Wind  
Wind Speed 2 mph (ENE)    
Max Wind Speed 10 mph    
Max Gust Speed -    
Visibility 5 miles    
Events      
Averages and records for this station are not official NWS values.
T = Trace of Precipitation, MM = Missing Value Source: NWS Daily Summary

Daily Weather History Graph

Daily Weather History Graph

Search for Another Location

Airport:

Trip Planner

Search our weather history database for the weather conditions in past years. The results will help you decide how hot, cold, wet, or windy it might be!

Date:

Astronomy

Feb. 09, 2014 Rise Set
Actual Time 6:58 AM CST 5:50 PM CST
Civil Twilight 6:33 AM CST 6:16 PM CST
Nautical Twilight 6:04 AM CST 6:45 PM CST
Astronomical Twilight 5:35 AM CST 7:14 PM CST
Moon 1:37 PM CST (2/9) 2:58 AM CST (2/9)
Length of Visible Light 11h 43m
Length of Day
10h 52m
Waxing Gibbous, 77% of the Moon is Illuminated
Feb 9
Waxing Gibbous
Feb 14
Full
Feb 22
Last Quarter
Mar 1
New
Mar 8
First Quarter

Hourly Weather History & Observations

Time (CST) Temp. Windchill Dew Point Humidity Pressure Visibility Wind Dir Wind Speed Gust Speed Precip Events Conditions
12:15 AM 38.3 °F - 38.1 °F 99% 30.17 in 2.5 mi Calm Calm - N/A   Clear
12:35 AM 36.5 °F - 36.5 °F 100% 30.16 in 1.0 mi Calm Calm - N/A   Mostly Cloudy
12:55 AM 35.6 °F - 35.4 °F 99% 30.17 in 0.8 mi Calm Calm - N/A   Mist
1:15 AM 35.1 °F - 35.1 °F 100% 30.18 in 1.2 mi Calm Calm - N/A   Overcast
1:35 AM 36.7 °F - 36.7 °F 100% 30.17 in 5.0 mi Calm Calm - N/A   Overcast
1:55 AM 36.5 °F - 36.5 °F 100% 30.16 in 1.8 mi Calm Calm - N/A   Overcast
2:15 AM 37.4 °F - 37.4 °F 100% 30.16 in 2.5 mi Calm Calm - N/A   Overcast
2:35 AM 38.5 °F - 38.5 °F 100% 30.16 in 2.5 mi Calm Calm - N/A   Overcast
2:55 AM 38.8 °F - 38.7 °F 99% 30.16 in 3.0 mi Calm Calm - N/A   Overcast
3:15 AM 39.4 °F - 39.2 °F 99% 30.16 in 2.5 mi Calm Calm - N/A   Overcast
3:35 AM 40.1 °F - 40.1 °F 100% 30.15 in 3.0 mi Calm Calm - N/A   Overcast
3:55 AM 40.3 °F - 40.1 °F 99% 30.14 in 4.0 mi Calm Calm - N/A   Overcast
4:15 AM 40.3 °F - 40.1 °F 99% 30.14 in 3.0 mi Calm Calm - N/A   Overcast
4:35 AM 40.5 °F - 40.3 °F 99% 30.14 in 2.5 mi Calm Calm - N/A   Overcast
4:55 AM 40.6 °F - 40.5 °F 99% 30.15 in 2.0 mi Calm Calm - N/A   Overcast
5:15 AM 40.6 °F - 40.5 °F 99% 30.15 in 1.8 mi Calm Calm - N/A   Overcast
5:35 AM 40.5 °F - 40.3 °F 99% 30.15 in 1.5 mi Calm Calm - N/A   Overcast
5:55 AM 40.5 °F - 40.3 °F 99% 30.16 in 1.2 mi Calm Calm - N/A   Overcast
6:15 AM 40.3 °F - 40.1 °F 99% 30.17 in 1.2 mi Calm Calm - N/A   Overcast
6:35 AM 40.5 °F - 40.3 °F 99% 30.18 in 1.8 mi Calm Calm - N/A   Overcast
6:55 AM 40.6 °F - 40.5 °F 99% 30.19 in 1.8 mi Calm Calm - N/A   Overcast
7:15 AM 41.0 °F - 40.8 °F 99% 30.19 in 2.0 mi Calm Calm - N/A   Overcast
7:35 AM 41.0 °F - 41.0 °F 100% 30.19 in 1.5 mi Calm Calm - N/A   Overcast
7:55 AM 41.0 °F - 41.0 °F 100% 30.19 in 1.2 mi Calm Calm - N/A   Overcast
8:15 AM 41.4 °F - 41.2 °F 99% 30.19 in 1.2 mi Calm Calm - N/A   Overcast
8:35 AM 41.4 °F - 41.2 °F 99% 30.20 in 1.2 mi Calm Calm - N/A   Overcast
8:55 AM 41.9 °F - 41.9 °F 100% 30.21 in 1.2 mi Calm Calm - N/A   Overcast
9:15 AM 42.3 °F - 42.1 °F 99% 30.21 in 1.5 mi Calm Calm - N/A   Overcast
9:35 AM 43.3 °F - 43.0 °F 99% 30.21 in 1.5 mi Calm Calm - N/A   Overcast
9:55 AM 44.6 °F 43.1 °F 44.2 °F 99% 30.20 in 2.0 mi ESE 3.5 mph - N/A   Overcast
10:15 AM 45.1 °F 43.7 °F 44.8 °F 99% 30.20 in 3.0 mi ENE 3.5 mph - N/A   Overcast
10:35 AM 45.9 °F 42.9 °F 44.8 °F 96% 30.20 in 7.0 mi East 5.8 mph - N/A   Overcast
10:55 AM 46.4 °F 44.3 °F 44.2 °F 92% 30.20 in 7.0 mi SSE 4.6 mph - N/A   Overcast
11:35 AM 46.6 °F - 43.9 °F 90% 30.21 in 7.0 mi South 4.6 mph - N/A   Overcast
11:55 AM 46.6 °F - 43.7 °F 90% 30.19 in 7.0 mi South 5.8 mph - N/A   Overcast
12:15 PM 46.9 °F - 43.7 °F 88% 30.18 in 10.0 mi South 5.8 mph - N/A   Overcast
12:35 PM 47.5 °F - 43.9 °F 87% 30.16 in 10.0 mi South 3.5 mph - N/A   Overcast
12:55 PM 47.7 °F - 43.5 °F 86% 30.17 in 10.0 mi SE 5.8 mph - N/A   Overcast
1:15 PM 48.6 °F - 43.3 °F 82% 30.15 in 10.0 mi Calm Calm - N/A   Overcast
1:35 PM 48.7 °F - 43.9 °F 83% 30.15 in 10.0 mi East 3.5 mph - N/A   Overcast
1:55 PM 50.0 °F - 43.7 °F 79% 30.13 in 10.0 mi Calm Calm - N/A   Overcast
2:15 PM 50.4 °F - 43.7 °F 78% 30.13 in 10.0 mi ESE 3.5 mph - N/A   Overcast
2:35 PM 50.2 °F - 43.7 °F 78% 30.12 in 10.0 mi SE 3.5 mph - N/A   Overcast
2:55 PM 50.4 °F - 43.9 °F 78% 30.11 in 10.0 mi Calm Calm - N/A   Overcast
3:15 PM 49.3 °F - 44.2 °F 83% 30.11 in 7.0 mi ENE 5.8 mph - N/A   Overcast
3:35 PM 47.8 °F - 43.9 °F 86% 30.11 in 5.0 mi ENE 5.8 mph - N/A   Overcast
3:55 PM 47.3 °F - 43.7 °F 87% 30.11 in 5.0 mi NNE 4.6 mph - N/A   Overcast
4:15 PM 46.9 °F - 43.7 °F 88% 30.11 in 5.0 mi NE 4.6 mph - N/A   Overcast
4:35 PM 46.4 °F 44.3 °F 43.2 °F 88% 30.11 in 4.0 mi NE 4.6 mph - N/A   Overcast
4:55 PM 46.4 °F 43.5 °F 43.3 °F 89% 30.11 in 4.0 mi NE 5.8 mph - N/A   Overcast
5:15 PM 46.0 °F 44.8 °F 43.0 °F 89% 30.12 in 4.0 mi NE 3.5 mph - N/A   Overcast
5:35 PM 45.7 °F 44.4 °F 42.8 °F 90% 30.13 in 5.0 mi NNE 3.5 mph - N/A   Overcast
5:55 PM 45.5 °F 41.8 °F 42.4 °F 89% 30.13 in 5.0 mi NNE 6.9 mph - N/A   Overcast
6:15 PM 44.8 °F 41.6 °F 41.9 °F 90% 30.13 in 7.0 mi NE 5.8 mph - N/A   Overcast
6:35 PM 44.6 °F 42.2 °F 41.4 °F 88% 30.12 in 7.0 mi NE 4.6 mph - N/A   Overcast
6:55 PM 44.1 °F 41.5 °F 41.0 °F 89% 30.12 in 10.0 mi ENE 4.6 mph - N/A   Overcast
7:15 PM 43.9 °F 42.3 °F 40.6 °F 88% 30.12 in 10.0 mi NE 3.5 mph - N/A   Overcast
7:35 PM 43.7 °F 39.7 °F 40.6 °F 89% 30.13 in 10.0 mi NNE 6.9 mph - N/A   Overcast
7:55 PM 43.5 °F 40.1 °F 40.3 °F 88% 30.13 in 10.0 mi NNE 5.8 mph - N/A   Overcast
8:15 PM 43.0 °F 38.8 °F 40.1 °F 90% 30.14 in 7.0 mi NNE 6.9 mph - N/A   Overcast
8:35 PM 42.8 °F 37.0 °F 39.9 °F 90% 30.14 in 10.0 mi NNE 10.4 mph - N/A   Overcast
8:55 PM 42.3 °F 37.3 °F 39.6 °F 90% 30.15 in 10.0 mi NNE 8.1 mph - N/A   Overcast
9:15 PM 42.1 °F 36.1 °F 39.6 °F 91% 30.16 in 10.0 mi NNE 10.4 mph - N/A   Overcast
9:35 PM 41.9 °F 36.3 °F 39.6 °F 91% 30.17 in 7.0 mi NNE 9.2 mph - N/A   Overcast
9:55 PM 41.4 °F 36.8 °F 39.2 °F 92% 30.17 in 7.0 mi NE 6.9 mph - N/A   Overcast
10:15 PM 41.2 °F 37.3 °F 39.2 °F 93% 30.17 in 7.0 mi NE 5.8 mph - N/A   Overcast
10:35 PM 41.0 °F 36.4 °F 39.2 °F 93% 30.18 in 7.0 mi NNE 6.9 mph - N/A   Overcast
10:55 PM 40.5 °F 36.5 °F 38.8 °F 94% 30.18 in 5.0 mi NE 5.8 mph - N/A   Overcast
11:15 PM 40.1 °F 34.7 °F 38.5 °F 94% 30.18 in 5.0 mi NE 8.1 mph - N/A   Overcast
11:35 PM 40.1 °F 34.7 °F 38.5 °F 94% 30.19 in 5.0 mi NE 8.1 mph - N/A   Overcast
11:55 PM 39.6 °F 34.7 °F 38.3 °F 95% 30.19 in 3.0 mi NNE 6.9 mph - N/A   Overcast